Weather in Mikshino

Russia / Tver Oblast     57°14′29″N   35°42′44″E
temp.,
°C
wind,
m/s
gust,
m/s
humid.,
%
clouds,
%
prec.,
mm/h
press.,
hPa
HPBL,
m
23 october, sat
sat2300:00+6sw71570100 0.0 9971596
03:00+5sw7147417 0.0 9971245
06:00+5sw6137698 0.0 9971145
09:00+5sw51184100 0.1 9981060
12:00+5sw4892100 0.9 1000896
15:00+6wsw4978100 1.5 1002898
18:00+4wsw4108280 0.0 1004482
21:00+4sw498599 0.0 1005574
24 october, sun
sun2400:00+3wsw268998 0.0 1006252
03:00+3w2497100 0.8 1007684
06:00+2wnw4992100 0.3 1009648
09:00+1nw51193100 0.9 1012872
12:00+2nnw61175100 0.3 10151296
15:00+3nnw610705 0.4 10181251
18:00+1nnw5107175 0.0 1022797
21:00−1nw39885 0.0 1024384
25 october, mon
mon2500:00−1nw37895 0.0 1026286
03:00−2wnw26905 0.0 1027189
06:00−2w2588100 0.0 1028148
09:000sw378196 0.0 1027321
12:00+3sw41066100 0.0 1026599
15:00+3sw51274100 0.1 1024750
18:00+2sw5137980 0.0 1023602
21:00+2sw513865 0.0 1022532
26 october, tue
tue2600:00+1wsw413900 0.0 1022481
03:00+1sw4139087 0.0 1021397
06:000sw41389100 0.0 1020376
09:00+1sw41384100 0.0 1019422
12:00+5sw41271100 0.0 1018535
15:00+5sw41171100 0.0 1017623
18:00+3sw41279100 0.0 1017466
21:00+3sw41283100 0.0 1017420
27 october, wed
wed2700:00+2sw41185100 0.0 1016383
03:00+2ssw41187100 0.0 1014357
06:00+2ssw41287100 0.0 1012411
09:00+3sw51384100 0.1 1011590
12:00+4wsw51291100 0.5 1011664
15:00+5wsw41086100 0.6 1010974
18:00+6wsw4118496 0.0 1011864
21:00+6w4128575 0.7 1012773